Total_Precipitation_Accumulation
0.01 0.00 0.01 0.01 0.02 0.01 0.01 0.03 0.05 0.07 0.08 0.08 0.08 0.07 0.07 0.09 0.09 0.08 0.07 0.07 0.10 0.18 0.25 0.26 0.26 0.29 0.28 0.27 0.22 0.15 0.12 0.08 0.07 0.06 0.05 0.05 0.07 0.10 0.13 0.10 0.08 0.07 0.02
0.01 0.00 0.00 0.01 0.02 0.02 0.02 0.04 0.06 0.06 0.07 0.07 0.07 0.06 0.07 0.07 0.09 0.10 0.09 0.09 0.14 0.20 0.21 0.23 0.24 0.24 0.22 0.18 0.14 0.09 0.06 0.04 0.04 0.04 0.05 0.11 0.22 0.23 0.21 0.18 0.16 0.14 0.02
0.01 0.00 0.00 0.01 0.02 0.02 0.02 0.04 0.06 0.07 0.07 0.07 0.08 0.07 0.08 0.08 0.09 0.10 0.11 0.12 0.17 0.19 0.17 0.17 0.18 0.16 0.13 0.07 0.04 0.03 0.02 0.02 0.04 0.06 0.18 0.36 0.46 0.33 0.22 0.20 0.19 0.13 0.04
0.00 0.00 0.00 0.01 0.02 0.01 0.01 0.02 0.04 0.05 0.07 0.09 0.10 0.09 0.09 0.09 0.09 0.09 0.11 0.12 0.15 0.15 0.13 0.12 0.11 0.09 0.05 0.02 0.02 0.01 0.01 0.02 0.06 0.14 0.34 0.50 0.69 0.54 0.32 0.23 0.22 0.19 0.15
0.01 0.01 0.00 0.01 0.01 0.01 0.01 0.02 0.04 0.06 0.06 0.08 0.11 0.12 0.10 0.07 0.07 0.09 0.13 0.17 0.19 0.18 0.18 0.18 0.14 0.08 0.04 0.03 0.02 0.02 0.02 0.03 0.08 0.21 0.49 0.76 0.89 0.73 0.43 0.27 0.28 0.28 0.28
0.01 0.00 0.00 0.01 0.01 0.01 0.01 0.01 0.04 0.07 0.07 0.08 0.09 0.11 0.11 0.08 0.07 0.12 0.20 0.23 0.23 0.22 0.26 0.31 0.25 0.16 0.08 0.04 0.02 0.02 0.02 0.03 0.08 0.26 0.67 0.96 0.91 0.66 0.39 0.27 0.23 0.29 0.35
0.01 0.00 0.00 0.01 0.01 0.01 0.01 0.02 0.05 0.07 0.09 0.11 0.10 0.11 0.12 0.08 0.06 0.12 0.22 0.27 0.27 0.26 0.26 0.23 0.17 0.13 0.10 0.06 0.04 0.03 0.02 0.03 0.10 0.30 0.64 0.92 0.76 0.46 0.29 0.22 0.19 0.21 0.24
0.01 0.00 0.00 0.00 0.01 0.02 0.02 0.04 0.07 0.06 0.07 0.09 0.09 0.11 0.11 0.07 0.05 0.10 0.19 0.27 0.33 0.29 0.21 0.16 0.12 0.09 0.08 0.06 0.05 0.03 0.04 0.05 0.09 0.23 0.48 0.57 0.47 0.28 0.18 0.16 0.14 0.13 0.13
0.05 0.04 0.03 0.01 0.01 0.02 0.02 0.03 0.04 0.04 0.04 0.05 0.05 0.07 0.09 0.08 0.06 0.10 0.17 0.23 0.22 0.15 0.12 0.11 0.09 0.07 0.04 0.03 0.02 0.03 0.04 0.05 0.08 0.15 0.28 0.38 0.35 0.18 0.10 0.07 0.07 0.06 0.06
0.30 0.53 0.33 0.07 0.02 0.01 0.01 0.01 0.02 0.01 0.01 0.01 0.01 0.03 0.05 0.06 0.08 0.11 0.14 0.13 0.09 0.05 0.03 0.03 0.03 0.02 0.02 0.01 0.01 0.01 0.02 0.02 0.04 0.08 0.16 0.23 0.21 0.12 0.08 0.05 0.03 0.02 0.02
0.52 0.73 0.33 0.11 0.03 0.01 0.00 0.00 0.01 0.01 0.01 0.01 0.02 0.03 0.05 0.12 0.16 0.17 0.11 0.09 0.05 0.02 0.01 0.01 0.01 0.01 0.01 0.00 0.00 0.00 0.00 0.00 0.02 0.06 0.10 0.15 0.18 0.12 0.07 0.05 0.03 0.02 0.02
0.36 0.29 0.17 0.08 0.02 0.01 0.01 0.01 0.01 0.01 0.01 0.02 0.04 0.05 0.11 0.21 0.25 0.19 0.11 0.07 0.03 0.02 0.01 0.01 0.01 0.00 0.00 0.00 0.01 0.00 0.00 0.01 0.02 0.04 0.03 0.04 0.08 0.07 0.06 0.05 0.03 0.02 0.02
0.35 0.13 0.07 0.06 0.04 0.02 0.00 0.01 0.01 0.01 0.02 0.02 0.04 0.06 0.12 0.14 0.11 0.09 0.09 0.06 0.04 0.03 0.02 0.03 0.02 0.01 0.01 0.01 0.01 0.02 0.02 0.02 0.02 0.03 0.03 0.04 0.06 0.06 0.05 0.04 0.03 0.03 0.03
0.24 0.13 0.07 0.07 0.05 0.03 0.01 0.01 0.02 0.02 0.02 0.03 0.04 0.04 0.09 0.11 0.10 0.09 0.10 0.11 0.12 0.10 0.08 0.08 0.06 0.03 0.02 0.02 0.03 0.03 0.02 0.02 0.02 0.02 0.05 0.07 0.07 0.07 0.06 0.05 0.04 0.04 0.04
0.19 0.13 0.11 0.10 0.05 0.03 0.01 0.01 0.01 0.01 0.02 0.03 0.04 0.04 0.05 0.07 0.08 0.08 0.08 0.09 0.09 0.13 0.15 0.14 0.12 0.06 0.04 0.03 0.03 0.04 0.04 0.02 0.03 0.06 0.07 0.06 0.05 0.07 0.08 0.07 0.06 0.06 0.06
0.18 0.14 0.14 0.10 0.03 0.02 0.01 0.01 0.01 0.01 0.04 0.05 0.05 0.04 0.03 0.05 0.08 0.09 0.11 0.12 0.09 0.09 0.11 0.11 0.12 0.08 0.04 0.03 0.04 0.05 0.06 0.04 0.04 0.08 0.10 0.09 0.09 0.09 0.10 0.11 0.11 0.11 0.11
0.23 0.20 0.19 0.08 0.03 0.02 0.01 0.01 0.02 0.03 0.05 0.07 0.07 0.06 0.05 0.05 0.08 0.10 0.15 0.18 0.15 0.12 0.11 0.11 0.11 0.11 0.10 0.08 0.09 0.09 0.08 0.08 0.10 0.11 0.10 0.12 0.13 0.13 0.15 0.14 0.13 0.12 0.10
0.33 0.44 0.37 0.13 0.05 0.04 0.04 0.04 0.04 0.05 0.06 0.08 0.10 0.11 0.12 0.12 0.14 0.19 0.24 0.24 0.25 0.22 0.22 0.24 0.23 0.22 0.21 0.19 0.18 0.17 0.16 0.15 0.14 0.13 0.12 0.11 0.10 0.10 0.11 0.10 0.10 0.10 0.10
0.56 0.89 0.66 0.20 0.08 0.08 0.08 0.08 0.10 0.13 0.17 0.21 0.23 0.22 0.23 0.22 0.24 0.29 0.34 0.37 0.38 0.38 0.39 0.39 0.41 0.39 0.38 0.36 0.29 0.24 0.21 0.18 0.18 0.15 0.12 0.12 0.11 0.09 0.08 0.07 0.07 0.07 0.08
1.02 1.44 0.96 0.38 0.19 0.14 0.15 0.18 0.23 0.29 0.39 0.47 0.45 0.40 0.39 0.42 0.46 0.53 0.56 0.59 0.60 0.61 0.60 0.60 0.56 0.49 0.42 0.37 0.29 0.23 0.20 0.18 0.16 0.13 0.10 0.08 0.07 0.06 0.04 0.03 0.04 0.05 0.08
0.99 1.16 0.85 0.52 0.37 0.30 0.36 0.45 0.56 0.67 0.78 0.80 0.79 0.82 0.89 0.96 0.98 0.97 0.93 0.87 0.79 0.74 0.69 0.59 0.52 0.47 0.42 0.35 0.28 0.21 0.13 0.10 0.08 0.07 0.06 0.05 0.04 0.03 0.02 0.02 0.02 0.02 0.03
0.76 0.73 0.71 0.66 0.65 0.55 0.63 0.78 1.00 1.20 1.27 1.32 1.43 1.60 1.71 1.64 1.46 1.33 1.19 0.99 0.85 0.75 0.68 0.60 0.53 0.46 0.38 0.29 0.24 0.21 0.14 0.08 0.05 0.03 0.03 0.03 0.02 0.02 0.01 0.01 0.01 0.01 0.01
0.70 0.69 0.71 0.78 0.88 0.86 0.99 1.17 1.40 1.66 1.86 1.98 2.05 2.09 2.01 1.81 1.62 1.44 1.20 1.01 0.90 0.80 0.74 0.67 0.55 0.47 0.36 0.26 0.19 0.18 0.15 0.10 0.05 0.03 0.02 0.01 0.01 0.01 0.01 0.01 0.01 0.01 0.01
0.64 0.75 0.76 0.87 1.02 1.20 1.40 1.56 1.82 2.11 2.27 2.26 2.05 1.88 1.68 1.49 1.31 1.12 0.99 0.92 0.85 0.77 0.69 0.56 0.41 0.32 0.25 0.18 0.12 0.09 0.08 0.06 0.06 0.04 0.01 0.01 0.01 0.01 0.01 0.01 0.01 0.01 0.01
0.60 0.69 0.82 0.99 1.19 1.49 1.81 2.04 2.24 2.34 2.24 2.02 1.77 1.50 1.37 1.23 1.07 0.92 0.82 0.77 0.68 0.55 0.43 0.31 0.23 0.18 0.13 0.09 0.06 0.05 0.05 0.05 0.05 0.06 0.04 0.02 0.01 0.01 0.01 0.01 0.01 0.01 0.01
0.50 0.67 0.86 1.09 1.35 1.61 1.88 2.14 2.21 2.17 2.07 1.85 1.52 1.30 1.17 1.01 0.82 0.67 0.54 0.44 0.35 0.26 0.19 0.13 0.08 0.06 0.05 0.05 0.05 0.05 0.05 0.06 0.06 0.07 0.06 0.04 0.02 0.01 0.01 0.01 0.01 0.01 0.01